Date,TemperatureHighF,TemperatureAvgF,TemperatureLowF,DewpointHighF,DewpointAvgF,DewpointLowF,HumidityHigh,HumidityAvg,HumidityLow,PressureMaxIn,PressureMinIn,WindSpeedMaxMPH,WindSpeedAvgMPH,GustSpeedMaxMPH,PrecipitationSumIn
2013-3-1,51,36,27,-100,-100,-100,0,0,100,0.00,40.00,0,-999,0,0.00
2013-3-2,46,37,27,-100,-100,-100,0,0,100,0.00,40.00,0,-999,0,0.00
2013-3-3,62,41,24,-100,-100,-100,0,0,100,0.00,40.00,0,-999,0,0.00
2013-3-4,73,57,44,-100,-100,-100,0,0,100,0.00,40.00,0,-999,0,0.00
2013-3-5,60,52,40,-100,-100,-100,0,0,100,0.00,40.00,0,-999,0,0.00
2013-3-6,57,43,31,-100,-100,-100,0,0,100,0.00,40.00,0,-999,0,0.00
2013-3-7,64,52,32,-100,-100,-100,0,0,100,0.00,40.00,0,-999,0,0.00
2013-3-8,68,51,39,-100,-100,-100,0,0,100,0.00,40.00,0,-999,0,0.00
2013-3-9,69,60,51,-100,-100,-100,0,0,100,0.00,40.00,0,-999,0,0.00
2013-3-10,62,54,41,-100,-100,-100,0,0,100,0.00,40.00,0,-999,0,0.00
2013-3-11,54,42,32,-100,-100,-100,0,0,100,0.00,40.00,0,-999,0,0.00
2013-3-12,63,44,29,-100,-100,-100,0,0,100,0.00,40.00,0,-999,0,0.00
2013-3-13,63,49,35,-100,-100,-100,0,0,100,0.00,40.00,0,-999,0,0.00
2013-3-14,73,52,36,-100,-100,-100,0,0,100,0.00,40.00,0,-999,0,0.00
2013-3-15,80,64,50,-100,-100,-100,0,0,100,0.00,40.00,0,-999,0,0.00
2013-3-16,80,66,54,-100,-100,-100,0,0,100,0.00,40.00,0,-999,0,0.00
2013-3-17,76,67,59,-100,-100,-100,0,0,100,0.00,40.00,0,-999,0,0.00
2013-3-18,73,64,58,-100,-100,-100,0,0,100,0.00,40.00,0,-999,0,0.00
2013-3-19,65,53,41,-100,-100,-100,0,0,100,0.00,40.00,0,-999,0,0.00
2013-3-20,64,52,40,-100,-100,-100,0,0,100,0.00,40.00,0,-999,0,0.00
2013-3-21,53,44,38,-100,-100,-100,0,0,100,0.00,40.00,0,-999,0,0.00
2013-3-22,45,42,38,-100,-100,-100,0,0,100,0.00,40.00,0,-999,0,0.00
2013-3-23,50,44,41,-100,-100,-100,0,0,100,0.00,40.00,0,-999,0,0.00
2013-3-24,46,42,38,-100,-100,-100,0,0,100,0.00,40.00,0,-999,0,0.00
2013-3-25,49,39,30,-100,-100,-100,0,0,100,0.00,40.00,0,-999,0,0.00
2013-3-26,52,38,22,-100,-100,-100,0,0,100,0.00,40.00,0,-999,0,0.00
2013-3-27,66,47,29,-100,-100,-100,0,0,100,0.00,40.00,0,-999,0,0.00
2013-3-28,71,58,42,-100,-100,-100,0,0,100,0.00,40.00,0,-999,0,0.00
2013-3-29,76,66,57,-100,-100,-100,0,0,100,0.00,40.00,0,-999,0,0.00
2013-3-30,69,60,56,-100,-100,-100,0,0,100,0.00,40.00,0,-999,0,0.00
2013-3-31,69,60,54,-100,-100,-100,0,0,100,0.00,40.00,0,-999,0,0.00